,,,PA_Meas_PMT16A,,PR_Meas_QMR101_102,,RH_Meas_QMH101,,SR_Meas_QMS101,,TA_Meas_QMH101,,GenWind,,GenWind,
date,time,status,PA,status,PR,status,RH,status,SR,status,TA,status,DirAvg,status,SpdAvg,
2010-09-30, 00:00:04,VALID,1009.09,VALID,0,VALID,102.978,VALID,0,VALID,24.2786,VALID,69,VALID,0.713281,
2010-09-30, 00:01:04,VALID,1009.1,VALID,0,VALID,102.902,VALID,0,VALID,24.3,VALID,54,VALID,0.53125,
2010-09-30, 00:02:04,VALID,1009.07,VALID,0,VALID,102.871,VALID,0,VALID,24.2786,VALID,72,VALID,0.424219,
2010-09-30, 00:03:04,VALID,1009.03,VALID,0,VALID,102.864,VALID,0,VALID,24.3194,VALID,63,VALID,0.614453,
2010-09-30, 00:04:04,VALID,1009.03,VALID,0,VALID,102.894,VALID,0,VALID,24.3194,VALID,77,VALID,0.493359,
2010-09-30, 00:05:04,VALID,1009.04,VALID,0,VALID,102.879,VALID,0,VALID,24.2981,VALID,80,VALID,0.642578,
2010-09-30, 00:06:04,VALID,1009.03,VALID,0,VALID,102.856,VALID,0,VALID,24.3,VALID,73,VALID,0.4125,
2010-09-30, 00:07:04,VALID,1008.99,VALID,0,VALID,102.856,VALID,0,VALID,24.2768,VALID,74,VALID,0.815625,
2010-09-30, 00:08:04,VALID,1009.01,VALID,0,VALID,102.841,VALID,0.105969,VALID,24.2963,VALID,84,VALID,0.421094,
2010-09-30, 00:09:04,VALID,1008.99,VALID,0,VALID,102.871,VALID,0.105969,VALID,24.3158,VALID,84,VALID,0.511328,
2010-09-30, 00:10:04,VALID,1008.98,VALID,0,VALID,102.871,VALID,0,VALID,24.3158,VALID,83,VALID,0.453125,
2010-09-30, 00:11:04,VALID,1008.97,VALID,0,VALID,102.917,VALID,0,VALID,24.3158,VALID,73,VALID,0.684766,
2010-09-30, 00:12:04,VALID,1008.94,VALID,0,VALID,102.932,VALID,0,VALID,24.3352,VALID,74,VALID,0.63125,
2010-09-30, 00:13:04,VALID,1008.9,VALID,0,VALID,102.948,VALID,0.105969,VALID,24.3352,VALID,76,VALID,0.654297,
2010-09-30, 00:14:04,VALID,1008.91,VALID,0,VALID,102.955,VALID,0.105969,VALID,24.3352,VALID,69,VALID,0.329297,
2010-09-30, 00:15:04,VALID,1008.87,VALID,0,VALID,102.94,VALID,0,VALID,24.3371,VALID,36,VALID,0.407813,
2010-09-30, 00:16:04,VALID,1008.85,VALID,0,VALID,102.91,VALID,0.105969,VALID,24.3158,VALID,30,VALID,0.263672,
2010-09-30, 00:17:04,VALID,1008.81,VALID,0,VALID,102.902,VALID,0.105969,VALID,24.3158,VALID,43,VALID,0.386328,
2010-09-30, 00:18:04,VALID,1008.8,VALID,0,VALID,102.894,VALID,0.105969,VALID,24.3158,VALID,43,VALID,0.289453,
2010-09-30, 00:19:04,VALID,1008.78,VALID,0,VALID,102.894,VALID,0,VALID,24.2963,VALID,43,VALID,0,
2010-09-30, 00:20:04,VALID,1008.72,VALID,0,VALID,102.894,VALID,0.105969,VALID,24.2963,VALID,43,VALID,0,
2010-09-30, 00:21:04,VALID,1008.73,VALID,0,VALID,102.894,VALID,0.105969,VALID,24.2963,VALID,43,VALID,0,
2010-09-30, 00:22:04,VALID,1008.71,VALID,0,VALID,102.932,VALID,0.105969,VALID,24.2963,VALID,43,VALID,0,
2010-09-30, 00:23:04,VALID,1008.69,VALID,0,VALID,102.963,VALID,0.105969,VALID,24.2963,VALID,43,VALID,0,
2010-09-30, 00:24:04,VALID,1008.7,VALID,0,VALID,102.993,VALID,0,VALID,24.3176,VALID,61,VALID,0,
2010-09-30, 00:25:04,VALID,1008.68,VALID,0,VALID,103.001,VALID,0.105969,VALID,24.2963,VALID,61,VALID,0,
2010-09-30, 00:26:04,VALID,1008.64,VALID,0,VALID,103.009,VALID,0.105969,VALID,24.2963,VALID,61,VALID,0,
2010-09-30, 00:27:04,VALID,1008.64,VALID,0,VALID,102.993,VALID,0.105969,VALID,24.2963,VALID,61,VALID,0,
2010-09-30, 00:28:04,VALID,1008.61,VALID,0,VALID,103.016,VALID,0.105969,VALID,24.2963,VALID,73,VALID,0,
2010-09-30, 00:29:04,VALID,1008.57,VALID,0,VALID,103.016,VALID,0.105969,VALID,24.3371,VALID,77,VALID,0,
2010-09-30, 00:30:04,VALID,1008.54,VALID,0,VALID,102.971,VALID,0.105969,VALID,24.3158,VALID,79,VALID,0,
2010-09-30, 00:31:04,VALID,1008.54,VALID,0,VALID,102.94,VALID,0.105969,VALID,24.3158,VALID,66,VALID,0,
2010-09-30, 00:32:04,VALID,1008.5,VALID,0,VALID,102.917,VALID,0.105969,VALID,24.3352,VALID,66,VALID,0,
2010-09-30, 00:33:04,VALID,1008.47,VALID,0,VALID,102.902,VALID,0.105969,VALID,24.3352,VALID,66,VALID,0,
2010-09-30, 00:34:04,VALID,1008.43,VALID,0,VALID,102.856,VALID,0.105969,VALID,24.3158,VALID,111,VALID,0.918359,
2010-09-30, 00:35:04,VALID,1008.44,VALID,0,VALID,102.719,VALID,0.105969,VALID,24.3352,VALID,107,VALID,0.861328,
2010-09-30, 00:36:04,VALID,1008.41,VALID,0,VALID,102.666,VALID,0.105969,VALID,24.3352,VALID,101,VALID,0.773047,
2010-09-30, 00:37:04,VALID,1008.39,VALID,0,VALID,102.582,VALID,0.105969,VALID,24.3352,VALID,99,VALID,0.492578,
2010-09-30, 00:38:04,VALID,1008.36,VALID,0,VALID,102.482,VALID,0.105969,VALID,24.3761,VALID,98,VALID,0.310547,
2010-09-30, 00:39:04,VALID,1008.32,VALID,0,VALID,102.521,VALID,0.105969,VALID,24.3742,VALID,98,VALID,0,
2010-09-30, 00:40:04,VALID,1008.31,VALID,0,VALID,102.521,VALID,0,VALID,24.3547,VALID,88,VALID,0.242188,
2010-09-30, 00:41:04,VALID,1008.27,VALID,0,VALID,102.391,VALID,0.105969,VALID,24.3352,VALID,100,VALID,0.964453,
2010-09-30, 00:42:04,VALID,1008.23,VALID,0,VALID,102.383,VALID,0.105969,VALID,24.3547,VALID,91,VALID,0.589063,
2010-09-30, 00:43:04,VALID,1008.19,VALID,0,VALID,102.292,VALID,0.105969,VALID,24.3139,VALID,88,VALID,0.667969,
2010-09-30, 00:44:04,VALID,1008.16,VALID,0,VALID,102.261,VALID,0.105969,VALID,24.3547,VALID,107,VALID,0.685938,
2010-09-30, 00:45:04,VALID,1008.16,VALID,0,VALID,102.216,VALID,0,VALID,24.3352,VALID,107,VALID,0.540625,
2010-09-30, 00:46:04,VALID,1008.19,VALID,0,VALID,102.162,VALID,0.105969,VALID,24.3547,VALID,107,VALID,0.439844,
2010-09-30, 00:47:05,VALID,1008.17,VALID,0,VALID,102.246,VALID,0.105969,VALID,24.3761,VALID,98,VALID,0.148438,
2010-09-30, 00:48:05,VALID,1008.16,VALID,0,VALID,102.139,VALID,0.105969,VALID,24.3352,VALID,71,VALID,0.628906,
2010-09-30, 00:49:05,VALID,1008.18,VALID,0,VALID,102.124,VALID,0.105969,VALID,24.3158,VALID,71,VALID,0.294922,
2010-09-30, 00:50:05,VALID,1008.17,VALID,0,VALID,102.193,VALID,0,VALID,24.3158,VALID,78,VALID,0.219922,
2010-09-30, 00:51:05,VALID,1008.18,VALID,0,VALID,102.307,VALID,0.105969,VALID,24.2944,VALID,93,VALID,0.704687,
2010-09-30, 00:52:05,VALID,1008.19,VALID,0,VALID,102.391,VALID,0.105969,VALID,24.3158,VALID,93,VALID,0.7625,
2010-09-30, 00:53:05,VALID,1008.18,VALID,0,VALID,102.368,VALID,0.105969,VALID,24.3176,VALID,89,VALID,0.517187,
2010-09-30, 00:54:05,VALID,1008.18,VALID,0,VALID,102.452,VALID,0.105969,VALID,24.3158,VALID,116,VALID,0.555469,
2010-09-30, 00:55:05,VALID,1008.16,VALID,0,VALID,102.376,VALID,0,VALID,24.2963,VALID,110,VALID,0.95,
2010-09-30, 00:56:05,VALID,1008.12,VALID,0,VALID,102.284,VALID,0.105969,VALID,24.2768,VALID,113,VALID,0.988281,
2010-09-30, 00:57:05,VALID,1008.11,VALID,0,VALID,102.269,VALID,0.105969,VALID,24.2768,VALID,99,VALID,0.728906,
2010-09-30, 00:58:05,VALID,1008.13,VALID,0,VALID,102.299,VALID,0.105969,VALID,24.2768,VALID,88,VALID,0.672656,
2010-09-30, 00:59:05,VALID,1008.1,VALID,0,VALID,102.399,VALID,0.105969,VALID,24.2768,VALID,89,VALID,0.374609,
2010-09-30, 01:00:05,VALID,1008.09,VALID,0,VALID,102.467,VALID,0.105969,VALID,24.2768,VALID,89,VALID,0.571875,
2010-09-30, 01:01:05,VALID,1008.07,VALID,0,VALID,102.49,VALID,0.105969,VALID,24.2768,VALID,106,VALID,0.630078,
2010-09-30, 01:02:05,VALID,1008.02,VALID,0,VALID,102.353,VALID,0.105969,VALID,24.2378,VALID,81,VALID,1.27031,
2010-09-30, 01:03:05,VALID,1008.02,VALID,0,VALID,102.246,VALID,0.105969,VALID,24.2183,VALID,88,VALID,1.03398,
2010-09-30, 01:04:05,VALID,1007.99,VALID,0,VALID,102.193,VALID,0.105969,VALID,24.197,VALID,61,VALID,0.948047,
2010-09-30, 01:05:05,VALID,1007.97,VALID,0,VALID,102.116,VALID,0,VALID,24.1599,VALID,72,VALID,0.891797,
2010-09-30, 01:06:05,VALID,1007.96,VALID,0,VALID,102.2,VALID,0,VALID,24.1793,VALID,79,VALID,0.994531,
2010-09-30, 01:07:05,VALID,1007.92,VALID,0,VALID,102.284,VALID,0,VALID,24.1617,VALID,80,VALID,0.672656,
2010-09-30, 01:08:05,VALID,1007.93,VALID,0,VALID,102.399,VALID,0.105969,VALID,24.1812,VALID,82,VALID,0.560547,
2010-09-30, 01:09:05,VALID,1007.94,VALID,0,VALID,102.521,VALID,0,VALID,24.1617,VALID,75,VALID,0.661719,
2010-09-30, 01:10:05,VALID,1007.91,VALID,0,VALID,102.551,VALID,0,VALID,24.1404,VALID,87,VALID,1.01328,
2010-09-30, 01:11:05,VALID,1007.93,VALID,0,VALID,102.65,VALID,0,VALID,24.1617,VALID,85,VALID,1.09492,
2010-09-30, 01:12:05,VALID,1007.9,VALID,0,VALID,102.627,VALID,0.105969,VALID,24.1422,VALID,91,VALID,1.0918,
2010-09-30, 01:13:05,VALID,1007.91,VALID,0,VALID,102.643,VALID,0,VALID,24.1422,VALID,83,VALID,1.07148,
2010-09-30, 01:14:05,VALID,1007.93,VALID,0,VALID,102.742,VALID,0,VALID,24.1422,VALID,85,VALID,1.01523,
2010-09-30, 01:15:05,VALID,1007.9,VALID,0,VALID,102.765,VALID,0,VALID,24.1617,VALID,100,VALID,0.562109,
2010-09-30, 01:16:05,VALID,1007.9,VALID,0,VALID,102.795,VALID,0,VALID,24.1209,VALID,109,VALID,0.743359,
2010-09-30, 01:17:05,VALID,1007.89,VALID,0,VALID,102.803,VALID,0,VALID,24.1227,VALID,106,VALID,0.585938,
2010-09-30, 01:18:05,VALID,1007.87,VALID,0,VALID,102.81,VALID,0.105969,VALID,24.1422,VALID,115,VALID,0.754687,
2010-09-30, 01:19:05,VALID,1007.88,VALID,0,VALID,102.803,VALID,0.105969,VALID,24.1209,VALID,87,VALID,0.841797,
2010-09-30, 01:20:05,VALID,1007.88,VALID,0,VALID,102.818,VALID,0.105969,VALID,24.1014,VALID,104,VALID,0.551953,
2010-09-30, 01:21:05,VALID,1007.9,VALID,0,VALID,102.841,VALID,0,VALID,24.1227,VALID,104,VALID,1.16836,
2010-09-30, 01:22:05,VALID,1007.86,VALID,0,VALID,102.856,VALID,0,VALID,24.1227,VALID,87,VALID,1.02539,
2010-09-30, 01:23:05,VALID,1007.82,VALID,0,VALID,102.871,VALID,0,VALID,24.1032,VALID,80,VALID,1.40078,
2010-09-30, 01:24:05,VALID,1007.85,VALID,0,VALID,102.826,VALID,0,VALID,24.1032,VALID,72,VALID,0.830859,
2010-09-30, 01:25:05,VALID,1007.79,VALID,0,VALID,102.864,VALID,0,VALID,24.0837,VALID,82,VALID,0.773438,
2010-09-30, 01:26:05,VALID,1007.8,VALID,0,VALID,102.833,VALID,0,VALID,24.0643,VALID,107,VALID,1.70508,
2010-09-30, 01:27:05,VALID,1007.78,VALID,0,VALID,102.833,VALID,0,VALID,24.0643,VALID,86,VALID,1.08867,
2010-09-30, 01:28:05,VALID,1007.76,VALID,0,VALID,102.887,VALID,0.105969,VALID,24.0643,VALID,84,VALID,0.75,
2010-09-30, 01:29:05,VALID,1007.77,VALID,0,VALID,102.887,VALID,0,VALID,24.0448,VALID,76,VALID,1.03516,
2010-09-30, 01:30:05,VALID,1007.77,VALID,0,VALID,102.917,VALID,0,VALID,24.0235,VALID,91,VALID,1.08672,
2010-09-30, 01:31:05,VALID,1007.76,VALID,0,VALID,102.932,VALID,0,VALID,24.0253,VALID,74,VALID,0.908984,
2010-09-30, 01:32:05,VALID,1007.75,VALID,0,VALID,102.948,VALID,0.105969,VALID,24.0448,VALID,71,VALID,0.415625,
2010-09-30, 01:33:05,VALID,1007.75,VALID,0,VALID,103.001,VALID,0,VALID,24.004,VALID,82,VALID,0.612109,
2010-09-30, 01:34:05,VALID,1007.76,VALID,0,VALID,103.024,VALID,0,VALID,24.0058,VALID,96,VALID,1.16523,
2010-09-30, 01:35:05,VALID,1007.73,VALID,0,VALID,103.024,VALID,0,VALID,24.0058,VALID,91,VALID,1.34141,
2010-09-30, 01:36:05,VALID,1007.74,VALID,0,VALID,103.009,VALID,0,VALID,23.9863,VALID,103,VALID,0.822266,
2010-09-30, 01:37:05,VALID,1007.73,VALID,0,VALID,103.024,VALID,0,VALID,23.9863,VALID,84,VALID,1.08047,
2010-09-30, 01:38:05,VALID,1007.72,VALID,0,VALID,103.054,VALID,0,VALID,23.9686,VALID,77,VALID,1.15234,
2010-09-30, 01:39:05,VALID,1007.69,VALID,0,VALID,103.047,VALID,0,VALID,23.9686,VALID,89,VALID,0.610547,
2010-09-30, 01:40:05,VALID,1007.7,VALID,0,VALID,103.07,VALID,0,VALID,23.9881,VALID,81,VALID,1.08516,
2010-09-30, 01:41:05,VALID,1007.71,VALID,0,VALID,103.093,VALID,0,VALID,23.9686,VALID,93,VALID,0.813281,
2010-09-30, 01:42:05,VALID,1007.67,VALID,0,VALID,103.085,VALID,0,VALID,23.9278,VALID,79,VALID,0.725,
2010-09-30, 01:43:05,VALID,1007.66,VALID,0,VALID,103.1,VALID,0,VALID,23.9278,VALID,93,VALID,1.44609,
2010-09-30, 01:44:05,VALID,1007.65,VALID,0,VALID,103.138,VALID,0,VALID,23.9491,VALID,71,VALID,1.02656,
2010-09-30, 01:45:05,VALID,1007.63,VALID,0,VALID,103.154,VALID,0,VALID,23.9278,VALID,92,VALID,0.516016,
2010-09-30, 01:46:05,VALID,1007.66,VALID,0,VALID,103.169,VALID,0,VALID,23.9278,VALID,103,VALID,0.771094,
2010-09-30, 01:47:05,VALID,1007.62,VALID,0,VALID,103.161,VALID,0,VALID,23.9278,VALID,80,VALID,0.887109,
2010-09-30, 01:48:05,VALID,1007.61,VALID,0,VALID,103.199,VALID,0,VALID,23.9491,VALID,86,VALID,0.695703,
2010-09-30, 01:49:05,VALID,1007.59,VALID,0,VALID,103.176,VALID,0,VALID,23.9297,VALID,103,VALID,1.18555,
2010-09-30, 01:50:05,VALID,1007.56,VALID,0,VALID,103.215,VALID,0,VALID,23.9491,VALID,67,VALID,0.640625,
2010-09-30, 01:51:05,VALID,1007.57,VALID,0,VALID,103.215,VALID,0,VALID,23.9491,VALID,103,VALID,0.565234,
2010-09-30, 01:52:05,VALID,1007.57,VALID,0,VALID,103.215,VALID,0,VALID,23.9491,VALID,108,VALID,0.257031,
2010-09-30, 01:53:05,VALID,1007.55,VALID,0,VALID,103.222,VALID,0,VALID,23.9491,VALID,91,VALID,0.662109,
2010-09-30, 01:54:05,VALID,1007.55,VALID,0,VALID,103.222,VALID,0,VALID,23.9084,VALID,98,VALID,0.725391,
2010-09-30, 01:55:05,VALID,1007.56,VALID,0,VALID,103.237,VALID,0,VALID,23.9297,VALID,98,VALID,0.885938,
2010-09-30, 01:56:05,VALID,1007.52,VALID,0,VALID,103.23,VALID,0,VALID,23.9102,VALID,129,VALID,0.901563,
2010-09-30, 01:57:05,VALID,1007.49,VALID,0,VALID,103.253,VALID,0,VALID,23.9084,VALID,109,VALID,0.467187,
2010-09-30, 01:58:05,VALID,1007.5,VALID,0,VALID,103.222,VALID,0,VALID,23.9491,VALID,117,VALID,0.640625,
2010-09-30, 01:59:05,VALID,1007.52,VALID,0,VALID,103.268,VALID,0,VALID,23.9102,VALID,121,VALID,0.971875,
2010-09-30, 02:00:05,VALID,1007.46,VALID,0,VALID,103.268,VALID,0,VALID,23.9102,VALID,141,VALID,0.84375,
2010-09-30, 02:01:05,VALID,1007.5,VALID,0,VALID,103.26,VALID,0,VALID,23.9084,VALID,137,VALID,1.18164,
2010-09-30, 02:02:05,VALID,1007.48,VALID,0,VALID,103.276,VALID,0,VALID,23.8907,VALID,133,VALID,1.13516,
2010-09-30, 02:03:05,VALID,1007.49,VALID,0,VALID,103.291,VALID,0,VALID,23.8712,VALID,121,VALID,0.810547,
2010-09-30, 02:04:05,VALID,1007.48,VALID,0,VALID,103.298,VALID,0,VALID,23.8304,VALID,125,VALID,1.16211,
2010-09-30, 02:05:05,VALID,1007.47,VALID,0,VALID,103.291,VALID,0,VALID,23.8517,VALID,112,VALID,0.567578,
2010-09-30, 02:06:05,VALID,1007.46,VALID,0,VALID,103.291,VALID,0,VALID,23.8517,VALID,131,VALID,0.394531,
2010-09-30, 02:07:05,VALID,1007.48,VALID,0,VALID,103.306,VALID,0.105969,VALID,23.8091,VALID,105,VALID,1.05156,
2010-09-30, 02:08:05,VALID,1007.43,VALID,0,VALID,103.321,VALID,0.105969,VALID,23.8304,VALID,97,VALID,1.29336,
2010-09-30, 02:09:05,VALID,1007.42,VALID,0,VALID,103.306,VALID,0,VALID,23.7896,VALID,102,VALID,0.930859,
2010-09-30, 02:10:05,VALID,1007.4,VALID,0,VALID,103.314,VALID,0,VALID,23.8109,VALID,121,VALID,0.928125,
2010-09-30, 02:11:05,VALID,1007.38,VALID,0,VALID,103.321,VALID,0.105969,VALID,23.7896,VALID,106,VALID,0.255078,
2010-09-30, 02:12:05,VALID,1007.34,VALID,0,VALID,103.321,VALID,0,VALID,23.7896,VALID,128,VALID,0.486328,
2010-09-30, 02:13:05,VALID,1007.34,VALID,0,VALID,103.337,VALID,0.105969,VALID,23.7701,VALID,123,VALID,0.844922,
2010-09-30, 02:14:05,VALID,1007.3,VALID,0,VALID,103.329,VALID,0,VALID,23.7914,VALID,117,VALID,0.417188,
2010-09-30, 02:15:05,VALID,1007.3,VALID,0,VALID,103.321,VALID,0,VALID,23.7701,VALID,140,VALID,0.948828,
2010-09-30, 02:16:05,VALID,1007.3,VALID,0,VALID,103.329,VALID,0.105969,VALID,23.7507,VALID,144,VALID,0.701563,
2010-09-30, 02:17:05,VALID,1007.24,VALID,0,VALID,103.329,VALID,0.105969,VALID,23.772,VALID,115,VALID,0.424609,
2010-09-30, 02:18:05,VALID,1007.27,VALID,0,VALID,103.306,VALID,0.105969,VALID,23.772,VALID,115,VALID,0.334375,
2010-09-30, 02:19:05,VALID,1007.24,VALID,0,VALID,103.314,VALID,0.105969,VALID,23.7507,VALID,115,VALID,0.415625,
2010-09-30, 02:20:05,VALID,1007.24,VALID,0,VALID,103.329,VALID,0.105969,VALID,23.7507,VALID,116,VALID,0.436328,
2010-09-30, 02:21:05,VALID,1007.24,VALID,0,VALID,103.329,VALID,0,VALID,23.7312,VALID,116,VALID,0.135156,
2010-09-30, 02:22:05,VALID,1007.22,VALID,0,VALID,103.329,VALID,0.105969,VALID,23.7507,VALID,115,VALID,0.209766,
2010-09-30, 02:23:05,VALID,1007.24,VALID,0,VALID,103.337,VALID,0.105969,VALID,23.7312,VALID,105,VALID,0.714844,
2010-09-30, 02:24:05,VALID,1007.22,VALID,0,VALID,103.321,VALID,0,VALID,23.772,VALID,105,VALID,0.305469,
2010-09-30, 02:25:05,VALID,1007.21,VALID,0,VALID,103.329,VALID,0,VALID,23.7525,VALID,57,VALID,0.729297,
2010-09-30, 02:26:05,VALID,1007.21,VALID,0,VALID,103.344,VALID,0.105969,VALID,23.7312,VALID,63,VALID,0.857813,
2010-09-30, 02:27:05,VALID,1007.18,VALID,0,VALID,103.329,VALID,0,VALID,23.7312,VALID,62,VALID,0.457031,
2010-09-30, 02:28:05,VALID,1007.18,VALID,0,VALID,103.344,VALID,0.105969,VALID,23.7312,VALID,34,VALID,0.83125,
2010-09-30, 02:29:05,VALID,1007.16,VALID,0,VALID,103.337,VALID,0.105969,VALID,23.733,VALID,61,VALID,0.314063,
2010-09-30, 02:30:05,VALID,1007.16,VALID,0,VALID,103.321,VALID,0.105969,VALID,23.7117,VALID,61,VALID,0.580078,
2010-09-30, 02:31:05,VALID,1007.13,VALID,0,VALID,103.329,VALID,0.105969,VALID,23.7117,VALID,61,VALID,0.408594,
2010-09-30, 02:32:05,VALID,1007.09,VALID,0,VALID,103.337,VALID,0.105969,VALID,23.7117,VALID,61,VALID,0.247656,
2010-09-30, 02:33:05,VALID,1007.09,VALID,0,VALID,103.314,VALID,0.105969,VALID,23.6922,VALID,61,VALID,0.0132813,
2010-09-30, 02:34:05,VALID,1007.09,VALID,0,VALID,103.329,VALID,0,VALID,23.7135,VALID,61,VALID,0.231641,
2010-09-30, 02:35:05,VALID,1007.07,VALID,0,VALID,103.321,VALID,0.105969,VALID,23.7135,VALID,61,VALID,0,
2010-09-30, 02:36:05,VALID,1007.09,VALID,0,VALID,103.329,VALID,0.105969,VALID,23.6727,VALID,60,VALID,0.280078,
2010-09-30, 02:37:05,VALID,1007.08,VALID,0,VALID,103.321,VALID,0.105969,VALID,23.6922,VALID,42,VALID,0.416016,
2010-09-30, 02:38:05,VALID,1007.09,VALID,0,VALID,103.321,VALID,0.105969,VALID,23.694,VALID,16,VALID,0.266797,
2010-09-30, 02:39:05,VALID,1007.09,VALID,0,VALID,103.321,VALID,0.105969,VALID,23.6727,VALID,45,VALID,0.672656,
2010-09-30, 02:40:05,VALID,1007.06,VALID,0,VALID,103.306,VALID,0.105969,VALID,23.6727,VALID,65,VALID,0.630078,
2010-09-30, 02:41:05,VALID,1007.07,VALID,0,VALID,103.314,VALID,0.105969,VALID,23.6727,VALID,64,VALID,0.272656,
2010-09-30, 02:42:05,VALID,1007.04,VALID,0,VALID,103.306,VALID,0.105969,VALID,23.6727,VALID,64,VALID,0.367578,
2010-09-30, 02:43:05,VALID,1007.03,VALID,0,VALID,103.298,VALID,0,VALID,23.694,VALID,64,VALID,0.0960938,
2010-09-30, 02:44:05,VALID,1007.01,VALID,0,VALID,103.283,VALID,0.105969,VALID,23.6727,VALID,64,VALID,0,
2010-09-30, 02:45:05,VALID,1006.99,VALID,0,VALID,103.276,VALID,0.105969,VALID,23.6922,VALID,64,VALID,0.356641,
2010-09-30, 02:46:05,VALID,1006.99,VALID,0,VALID,103.276,VALID,0.105969,VALID,23.6727,VALID,64,VALID,0.221484,
2010-09-30, 02:47:05,VALID,1006.97,VALID,0,VALID,103.268,VALID,0,VALID,23.694,VALID,64,VALID,0,
2010-09-30, 02:48:05,VALID,1007,VALID,0,VALID,103.268,VALID,0.105969,VALID,23.6727,VALID,46,VALID,0.18125,
2010-09-30, 02:49:05,VALID,1007,VALID,0,VALID,103.26,VALID,0,VALID,23.6745,VALID,36,VALID,0.5,
2010-09-30, 02:50:05,VALID,1006.99,VALID,0,VALID,103.26,VALID,0.105969,VALID,23.694,VALID,55,VALID,0.268359,
2010-09-30, 02:51:05,VALID,1007.01,VALID,0,VALID,103.268,VALID,0.105969,VALID,23.694,VALID,55,VALID,0.489844,
2010-09-30, 02:52:05,VALID,1007.01,VALID,0,VALID,103.237,VALID,0,VALID,23.694,VALID,76,VALID,0,
2010-09-30, 02:53:05,VALID,1007.02,VALID,0,VALID,103.23,VALID,0,VALID,23.6727,VALID,77,VALID,0,
2010-09-30, 02:54:05,VALID,1007,VALID,0,VALID,103.222,VALID,0,VALID,23.694,VALID,78,VALID,0,
2010-09-30, 02:55:05,VALID,1006.98,VALID,0,VALID,103.207,VALID,0,VALID,23.694,VALID,85,VALID,0,
2010-09-30, 02:56:05,VALID,1006.95,VALID,0,VALID,103.215,VALID,0,VALID,23.694,VALID,85,VALID,0,
2010-09-30, 02:57:05,VALID,1006.95,VALID,0,VALID,103.222,VALID,0,VALID,23.694,VALID,85,VALID,0,
2010-09-30, 02:58:05,VALID,1006.93,VALID,0,VALID,103.207,VALID,0,VALID,23.6922,VALID,85,VALID,0,
2010-09-30, 02:59:05,VALID,1006.93,VALID,0,VALID,103.184,VALID,0,VALID,23.7135,VALID,77,VALID,0,
2010-09-30, 03:00:05,VALID,1006.92,VALID,0,VALID,103.192,VALID,0,VALID,23.6922,VALID,74,VALID,0,
2010-09-30, 03:01:05,VALID,1006.88,VALID,0,VALID,103.215,VALID,0,VALID,23.694,VALID,74,VALID,0,
2010-09-30, 03:02:05,VALID,1006.9,VALID,0,VALID,103.199,VALID,0,VALID,23.7135,VALID,61,VALID,0,
2010-09-30, 03:03:05,VALID,1006.89,VALID,0,VALID,103.199,VALID,0,VALID,23.733,VALID,61,VALID,0,
2010-09-30, 03:04:05,VALID,1006.9,VALID,0,VALID,103.192,VALID,0,VALID,23.6922,VALID,56,VALID,0,
2010-09-30, 03:05:05,VALID,1006.89,VALID,0,VALID,103.199,VALID,0,VALID,23.7135,VALID,63,VALID,0,
2010-09-30, 03:06:05,VALID,1006.89,VALID,0,VALID,103.176,VALID,0,VALID,23.7117,VALID,75,VALID,0,
2010-09-30, 03:07:05,VALID,1006.88,VALID,0,VALID,103.169,VALID,0.105969,VALID,23.6922,VALID,80,VALID,0.101953,
2010-09-30, 03:08:05,VALID,1006.92,VALID,0,VALID,103.169,VALID,0,VALID,23.7525,VALID,74,VALID,0.914453,
2010-09-30, 03:09:05,VALID,1006.93,VALID,0,VALID,103.161,VALID,0,VALID,23.7312,VALID,51,VALID,0.535156,
2010-09-30, 03:10:05,VALID,1006.9,VALID,0,VALID,103.169,VALID,0,VALID,23.772,VALID,74,VALID,0.735156,
2010-09-30, 03:11:05,VALID,1006.94,VALID,0,VALID,103.176,VALID,0,VALID,23.7914,VALID,86,VALID,0.497656,
2010-09-30, 03:12:05,VALID,1006.97,VALID,0,VALID,103.154,VALID,0,VALID,23.7896,VALID,80,VALID,0.546094,
2010-09-30, 03:13:05,VALID,1006.94,VALID,0,VALID,103.154,VALID,0,VALID,23.7896,VALID,85,VALID,0.436719,
2010-09-30, 03:14:05,VALID,1006.95,VALID,0,VALID,103.161,VALID,0,VALID,23.7896,VALID,85,VALID,0.0597656,
2010-09-30, 03:15:05,VALID,1006.94,VALID,0,VALID,103.169,VALID,0,VALID,23.8091,VALID,85,VALID,0.00351562,
2010-09-30, 03:16:05,VALID,1006.96,VALID,0,VALID,103.184,VALID,0,VALID,23.7896,VALID,85,VALID,0.0015625,
2010-09-30, 03:17:05,VALID,1006.95,VALID,0,VALID,103.207,VALID,0,VALID,23.7896,VALID,85,VALID,0.336719,
2010-09-30, 03:18:05,VALID,1006.93,VALID,0,VALID,103.207,VALID,0,VALID,23.7896,VALID,81,VALID,0.560938,
2010-09-30, 03:19:05,VALID,1006.95,VALID,0,VALID,103.169,VALID,0,VALID,23.8499,VALID,86,VALID,0.670313,
2010-09-30, 03:20:05,VALID,1006.94,VALID,0,VALID,103.169,VALID,0,VALID,23.8499,VALID,80,VALID,0,
2010-09-30, 03:21:05,VALID,1006.95,VALID,0,VALID,103.207,VALID,0.105969,VALID,23.8499,VALID,79,VALID,0,
2010-09-30, 03:22:05,VALID,1006.93,VALID,0,VALID,103.207,VALID,0,VALID,23.8694,VALID,79,VALID,0,
2010-09-30, 03:23:05,VALID,1006.96,VALID,0,VALID,103.207,VALID,0.105969,VALID,23.8481,VALID,106,VALID,0,
2010-09-30, 03:24:05,VALID,1006.95,VALID,0,VALID,103.237,VALID,0,VALID,23.8694,VALID,100,VALID,0,
2010-09-30, 03:25:05,VALID,1006.95,VALID,0,VALID,103.207,VALID,0,VALID,23.8676,VALID,97,VALID,0,
2010-09-30, 03:26:05,VALID,1006.92,VALID,0,VALID,103.215,VALID,0.105969,VALID,23.8889,VALID,97,VALID,0,
2010-09-30, 03:27:05,VALID,1006.91,VALID,0,VALID,103.237,VALID,0,VALID,23.8676,VALID,76,VALID,0,
2010-09-30, 03:28:05,VALID,1006.92,VALID,0,VALID,103.268,VALID,0.105969,VALID,23.8676,VALID,98,VALID,1.13711,
2010-09-30, 03:29:05,VALID,1006.92,VALID,0,VALID,103.268,VALID,0,VALID,23.8871,VALID,56,VALID,1.17773,
2010-09-30, 03:30:05,VALID,1006.92,VALID,0,VALID,103.283,VALID,0.105969,VALID,23.8871,VALID,102,VALID,0.836328,
2010-09-30, 03:31:05,VALID,1006.92,VALID,0,VALID,103.314,VALID,0,VALID,23.8871,VALID,120,VALID,0.880078,
2010-09-30, 03:32:05,VALID,1006.91,VALID,0,VALID,103.321,VALID,0.105969,VALID,23.9065,VALID,106,VALID,1.0457,
2010-09-30, 03:33:05,VALID,1006.93,VALID,0,VALID,103.321,VALID,0.105969,VALID,23.926,VALID,87,VALID,0.369531,
2010-09-30, 03:34:05,VALID,1006.94,VALID,0,VALID,103.337,VALID,0.105969,VALID,23.9084,VALID,91,VALID,1.12344,
2010-09-30, 03:35:05,VALID,1006.96,VALID,0,VALID,103.352,VALID,0,VALID,23.9278,VALID,89,VALID,1.2082,
2010-09-30, 03:36:05,VALID,1006.96,VALID,0,VALID,103.367,VALID,0.105969,VALID,23.9065,VALID,126,VALID,0.403906,
2010-09-30, 03:37:04,VALID,1006.97,VALID,0,VALID,103.352,VALID,0,VALID,23.9278,VALID,53,VALID,0.508203,
2010-09-30, 03:38:04,VALID,1006.97,VALID,0,VALID,103.375,VALID,0,VALID,23.9278,VALID,88,VALID,1.16055,
2010-09-30, 03:39:04,VALID,1006.97,VALID,0,VALID,103.375,VALID,0,VALID,23.9065,VALID,93,VALID,0.729297,
2010-09-30, 03:40:04,VALID,1006.96,VALID,0,VALID,103.382,VALID,0.105969,VALID,23.9065,VALID,93,VALID,0.409766,
2010-09-30, 03:41:04,VALID,1006.93,VALID,0,VALID,103.375,VALID,0,VALID,23.9065,VALID,113,VALID,0.867578,
2010-09-30, 03:42:04,VALID,1006.96,VALID,0,VALID,103.367,VALID,0,VALID,23.8871,VALID,104,VALID,0.840234,